EST,Max TemperatureF,Mean TemperatureF,Min TemperatureF,Max Dew PointF,MeanDew PointF,Min DewpointF,Max Humidity, Mean Humidity, Min Humidity, Max Sea Level PressureIn, Mean Sea Level PressureIn, Min Sea Level PressureIn, Max VisibilityMiles, Mean VisibilityMiles, Min VisibilityMiles, Max Wind SpeedMPH, Mean Wind SpeedMPH, Max Gust SpeedMPH,PrecipitationIn, CloudCover, Events, WindDirDegrees
2012-12-1,64,47,29,38,33,26,92,65,37,30.41,30.35,30.30,10,9,5,5,1,7,0.00,0,,96
2012-12-2,70,51,32,50,41,30,89,67,44,30.38,30.29,30.20,10,9,6,21,5,29,T,1,Rain,217
2012-12-3,76,63,50,52,50,48,89,66,43,30.27,30.23,30.19,10,10,10,10,4,13,T,3,,226
2012-12-4,74,59,43,52,46,42,100,71,41,30.29,30.23,30.12,10,5,0,13,5,16,0.00,0,Fog,217
2012-12-5,63,48,33,53,39,24,86,57,27,30.21,30.15,30.08,10,10,8,13,4,17,0.01,5,Rain,314
2012-12-6,50,42,33,36,28,25,75,59,42,30.36,30.27,30.22,10,10,10,13,5,,T,3,,60
2012-12-7,51,48,45,46,40,33,93,75,56,30.20,30.10,30.00,10,8,2,5,0,,0.15,8,Rain,280
2012-12-8,64,56,47,51,48,45,100,82,63,30.02,29.99,29.95,10,5,0,13,5,15,0.00,4,Fog,230
2012-12-9,64,56,47,57,51,45,93,86,78,30.13,30.06,29.96,10,3,0,7,2,8,0.06,7,Fog-Rain,4
2012-12-10,67,61,54,59,56,52,100,84,68,29.97,29.82,29.65,10,5,0,20,6,26,0.11,7,Fog-Rain,219
2012-12-11,63,53,43,56,38,28,84,64,44,30.17,29.92,29.68,10,10,9,20,8,25,0.01,6,Rain,334
2012-12-12,48,45,42,30,27,26,62,54,45,30.35,30.29,30.18,10,10,10,16,9,21,0.00,5,,45
2012-12-13,53,40,27,27,23,18,75,51,26,30.42,30.36,30.33,10,10,10,17,7,23,0.00,4,,33
2012-12-14,59,40,21,28,23,19,92,58,24,30.37,30.30,30.23,10,10,10,12,1,13,0.00,0,,233
2012-12-15,60,45,30,32,28,25,85,56,27,30.26,30.18,30.08,10,10,10,8,1,13,0.00,2,,129
2012-12-16,54,49,43,51,45,31,96,75,53,30.07,29.97,29.88,10,8,4,12,5,15,0.20,8,Rain,247
2012-12-17,57,53,48,54,51,46,96,88,80,29.86,29.76,29.62,10,6,0,13,5,16,0.01,6,Fog-Rain,224
2012-12-18,61,48,35,54,42,28,93,67,40,29.89,29.72,29.62,10,10,10,24,8,35,0.00,4,,256
2012-12-19,66,47,28,35,31,26,92,62,31,30.13,29.99,29.86,10,10,9,17,5,23,0.00,0,,244
2012-12-20,60,48,35,56,42,32,93,77,61,30.17,29.81,29.44,10,9,2,24,5,35,0.37,5,Rain,105
2012-12-21,53,45,36,45,27,18,80,59,38,29.78,29.60,29.46,10,10,10,29,17,37,0.00,7,,262
2012-12-22,50,41,31,20,17,13,52,38,24,30.09,29.97,29.79,10,10,10,24,11,36,0.00,2,,285
2012-12-23,54,38,22,25,19,15,84,53,22,30.12,30.05,29.98,10,10,10,17,4,21,0.00,1,,220
2012-12-24,46,42,38,45,39,25,93,69,45,30.01,29.94,29.88,10,7,2,10,2,14,0.42,7,Rain,228
2012-12-25,54,48,42,43,41,37,96,81,66,30.12,30.05,29.92,10,7,0,15,5,21,0.00,5,Fog,58
2012-12-26,44,40,36,38,35,33,92,84,76,30.10,29.71,29.49,10,8,2,28,11,38,1.07,7,Rain,26
2012-12-27,47,39,30,33,27,22,92,69,45,30.09,29.89,29.60,10,10,10,18,10,25,0.00,2,,285
2012-12-28,42,33,24,28,24,21,88,69,49,30.19,30.09,29.99,10,10,10,7,2,10,0.00,1,,262
2012-12-29,51,43,34,38,32,22,92,67,41,29.99,29.79,29.64,10,8,2,22,7,29,0.05,7,Rain,287
2012-12-30,46,37,27,21,17,14,52,40,28,30.38,30.23,29.96,10,10,10,18,9,28,0.00,1,,296
2012-12-31,49,36,22,28,22,16,75,55,34,30.35,30.23,30.08,10,10,10,14,5,16,0.00,1,,230